Toronto, Ontario

11:47 AM EDT on 五月 27, 2017 (GMT -0400)
Toronto

天気 に付いての歴史 CYTZ - 四月, 2017

Change the Weather History Date:

金曜日, 四月 21, 2017

  Actual Average Record
Temperature  
平均温度 48 °F -  
最高温度 55 °F 58 °F 66 °F (2006)
最低温度 41 °F 43 °F 29 °F (2013)
Degree Days  
暖房度日 17    
Moisture  
露点温度 42 °F    
Average Humidity 89    
Maximum Humidity 100    
Minimum Humidity 51    
降水確率  
降水確率 0.00 インチ 0.09 インチ - ()
海面圧  
海面圧 29.84 インチ    
 
風速 11 Mph ()    
最大風速 21 Mph    
Max Gust Speed 26 Mph    
視程 5.4 マイル    
イベント    
Averages and records for this station are not official NWS values.
T = Trace of Precipitation, MM = Missing Value Source: Averaged Metar Reports

Daily Weather History Graph

Daily Weather History Graph

Search for Another Location

Airport or City:

Trip Planner

Search our weather history database for the weather conditions in past years. The results will help you decide how hot, cold, wet, or windy it might be!

Date:

天文

Apr. 21, 2017 入り
実時間 6:24 AM EDT 8:08 PM EDT
常用薄明 5:54 AM EDT 8:39 PM EDT
航海薄明 5:17 AM EDT 9:16 PM EDT
天文薄明 4:37 AM EDT 9:56 PM EDT
3:53 AM EDT (4/21) 2:38 PM EDT (4/21)
可視光の長さ 14h 44m
可照時間
13h 43m
二十六夜, 28% of the Moon is Illuminated
4月 21
二十六夜
4月 26
新しい
5月 2
上弦
5月 10
満月
5月 18
第 4 四半期

Hourly Weather History & Observations

時間 (EDT) 温度 体感気温(寒さ) 露点温度 湿度 気圧 視程 Wind Dir 風速 突風の速度 Precip イベント 現在の気象状況
12:00 AM 42.8 °F 34.3 °F 41.0 °F 93% 29.82 インチ 4.0 マイル 東北東 19.6 Mph - N/A 小雨
12:04 AM 42.8 °F 34.0 °F 41.0 °F 93% 29.82 インチ 6.0 マイル 東北東 20.7 Mph - N/A 小雨
12:24 AM 42.8 °F 34.8 °F 41.0 °F 93% 29.82 インチ 9.0 マイル 東北東 17.3 Mph 23.0 Mph N/A  
1:00 AM 42.8 °F 34.5 °F 41.0 °F 93% 29.79 インチ 9.0 マイル 東北東 18.4 Mph - N/A  
2:00 AM 43 °F - 42 °F 92% 29.79 インチ 10 マイル 東北東 12.7 Mph - -  
2:00 AM 42.8 °F 36.2 °F 41.0 °F 93% 29.79 インチ 9.0 マイル 東北東 12.7 Mph - N/A  
2:03 AM 42.8 °F 35.8 °F 41.0 °F 93% 29.79 インチ 9.0 マイル 13.8 Mph - N/A  
2:39 AM 42.8 °F 37.5 °F 42.8 °F 100% 29.78 インチ 5.0 マイル 東北東 9.2 Mph - N/A  
3:00 AM 42.8 °F 40.1 °F 42.8 °F 100% 29.79 インチ 4.0 マイル 東北東 4.6 Mph - N/A  
3:17 AM 42.8 °F 41.1 °F 42.8 °F 100% 29.78 インチ 2.5 マイル 3.5 Mph - N/A  
3:38 AM 42.8 °F - 42.8 °F 100% 29.79 インチ 1.2 マイル 変数 2.3 Mph - N/A  
4:00 AM 42.8 °F 40.1 °F 42.8 °F 100% 29.79 インチ 1.0 マイル 西南西 4.6 Mph - N/A  
4:09 AM 44.6 °F 42.2 °F 42.8 °F 93% 29.79 インチ 1.5 マイル 西北西 4.6 Mph - N/A  
4:36 AM 44.6 °F 41.4 °F 42.8 °F 93% 29.78 インチ 3.0 マイル 西 5.8 Mph - N/A  
4:51 AM 44.6 °F 41.4 °F 42.8 °F 93% 29.79 インチ 2.2 マイル 西南西 5.8 Mph - N/A  
4:56 AM 42.8 °F 39.3 °F 42.8 °F 100% 29.79 インチ 1.2 マイル 西南西 5.8 Mph - N/A  
5:00 AM 42 °F - 42 °F 99% 29.78 インチ 1 マイル 西南西 5.8 Mph - -   もや
5:00 AM 42.8 °F 39.3 °F 42.8 °F 100% 29.78 インチ 1.2 マイル 西南西 5.8 Mph - N/A  
5:16 AM 42.8 °F 39.3 °F 42.8 °F 100% 29.78 インチ 1.5 マイル 西南西 5.8 Mph - N/A  
6:00 AM 42.8 °F 37.0 °F 42.8 °F 100% 29.79 インチ 2.2 マイル 西南西 10.4 Mph - N/A  
6:14 AM 42.8 °F 37.5 °F 42.8 °F 100% 29.80 インチ 3.0 マイル 西南西 9.2 Mph - N/A  
7:00 AM 44.6 °F 41.4 °F 42.8 °F 93% 29.81 インチ 4.0 マイル 西南西 5.8 Mph - N/A  
7:11 AM 44.6 °F 42.2 °F 42.8 °F 93% 29.82 インチ 3.0 マイル 南西 4.6 Mph - N/A  
7:26 AM 42.8 °F 38.6 °F 42.8 °F 100% 29.82 インチ 2.5 マイル 南南西 6.9 Mph - N/A  
7:36 AM 42.8 °F 37.5 °F 42.8 °F 100% 29.83 インチ 1.2 マイル 南南西 9.2 Mph - N/A  
7:42 AM 42.8 °F 37.5 °F 42.8 °F 100% 29.83 インチ 1.2 マイル 南西 9.2 Mph - N/A  
7:43 AM 42.8 °F 37.5 °F 42.8 °F 100% 29.83 インチ 1.5 マイル 南西 9.2 Mph - N/A  
8:00 AM 43 °F - 43 °F 99% 29.83 インチ 2 マイル 南南西 9.2 Mph - -   もや
8:00 AM 42.8 °F 37.0 °F 42.8 °F 100% 29.83 インチ 1.8 マイル 南南西 10.4 Mph - N/A  
8:24 AM 42.8 °F 36.6 °F 42.8 °F 100% 29.83 インチ 3.0 マイル 南南西 11.5 Mph - N/A  
8:39 AM 42.8 °F 36.6 °F 42.8 °F 100% 29.83 インチ 6.0 マイル 南南西 11.5 Mph - N/A  
9:00 AM 42.8 °F 36.6 °F 42.8 °F 100% 29.83 インチ 6.0 マイル 南南西 11.5 Mph - N/A  
9:11 AM 42.8 °F 36.2 °F 42.8 °F 100% 29.83 インチ 5.0 マイル 南南西 12.7 Mph - N/A  
10:00 AM 44.6 °F 38.4 °F 42.8 °F 93% 29.83 インチ 5.0 マイル 南南西 12.7 Mph - N/A  
10:29 AM 44.6 °F 38.1 °F 42.8 °F 93% 29.84 インチ 5.0 マイル 南南西 13.8 Mph - N/A  
10:32 AM 44.6 °F 38.1 °F 44.6 °F 100% 29.84 インチ 5.0 マイル 南南西 13.8 Mph - N/A  
10:35 AM 44.6 °F 38.4 °F 42.8 °F 93% 29.84 インチ 5.0 マイル 南南西 12.7 Mph - N/A  
10:39 AM 44.6 °F 38.4 °F 44.6 °F 100% 29.84 インチ 5.0 マイル 南南西 12.7 Mph - N/A  
10:42 AM 44.6 °F 38.4 °F 42.8 °F 93% 29.84 インチ 5.0 マイル 南南西 12.7 Mph - N/A  
10:44 AM 44.6 °F 38.4 °F 42.8 °F 93% 29.84 インチ 5.0 マイル 南南西 12.7 Mph - N/A  
10:47 AM 44.6 °F 38.1 °F 42.8 °F 93% 29.84 インチ 5.0 マイル 南南西 13.8 Mph - N/A  
10:56 AM 44.6 °F 38.4 °F 44.6 °F 100% 29.84 インチ 5.0 マイル 南南西 12.7 Mph - N/A  
10:57 AM 44.6 °F 38.4 °F 44.6 °F 100% 29.84 インチ 5.0 マイル 南南西 12.7 Mph - N/A  
11:00 AM 45 °F - 44 °F 96% 29.84 インチ 5 マイル 南南西 13.8 Mph - -   もや
11:00 AM 44.6 °F 38.1 °F 44.6 °F 100% 29.84 インチ 5.0 マイル 南南西 13.8 Mph - N/A  
11:05 AM 46.4 °F 40.7 °F 44.6 °F 93% 29.84 インチ 6.0 マイル 南南西 12.7 Mph - N/A  
11:17 AM 46.4 °F 40.4 °F 44.6 °F 93% 29.84 インチ 7.0 マイル 南南西 13.8 Mph - N/A  
11:48 AM 46.4 °F 39.8 °F 44.6 °F 93% 29.85 インチ 5.0 マイル 南西 16.1 Mph - N/A   だいたい曇
11:50 AM 46.4 °F 40.1 °F 44.6 °F 93% 29.85 インチ 5.0 マイル 南西 15.0 Mph 20.7 Mph N/A 小雨
12:00 PM 46.4 °F 41.1 °F 44.6 °F 93% 29.85 インチ 3.0 マイル 南西 11.5 Mph 18.4 Mph N/A 小雨
12:06 PM 46.4 °F 41.9 °F 44.6 °F 93% 29.84 インチ 6.0 マイル 南西 9.2 Mph 17.3 Mph N/A 小雨
12:10 PM 46.4 °F 41.5 °F 44.6 °F 93% 29.84 インチ 8.0 マイル 南西 10.4 Mph - N/A  
1:00 PM 51.8 °F - 44.6 °F 76% 29.84 インチ 9.0 マイル 西 16.1 Mph 21.9 Mph N/A  
2:00 PM 54 °F - 42 °F 54% 29.85 インチ 10 マイル 西 18.4 Mph - -  
2:00 PM 53.6 °F - 42.8 °F 67% 29.85 インチ 9.0 マイル 西 17.3 Mph 26.5 Mph N/A  
3:00 PM 55.4 °F - 41.0 °F 58% 29.86 インチ 9.0 マイル 西 18.4 Mph 24.2 Mph N/A  
4:00 PM 53.6 °F - 39.2 °F 58% 29.86 インチ 9.0 マイル 西 16.1 Mph 26.5 Mph N/A  
5:00 PM 53 °F - 40 °F 51% 29.89 インチ 10 マイル 西 20.7 Mph - -  
5:00 PM 53.6 °F - 41.0 °F 62% 29.89 インチ 9.0 マイル 西 17.3 Mph 26.5 Mph N/A   だいたい曇
6:00 PM 51.8 °F - 37.4 °F 58% 29.92 インチ 9.0 マイル 西北西 15.0 Mph 23.0 Mph N/A  
7:00 PM 50.0 °F - 37.4 °F 62% 29.94 インチ 9.0 マイル 西北西 16.1 Mph 23.0 Mph N/A  
8:00 PM 48 °F - 37 °F 56% 29.96 インチ 10 マイル 西 15.0 Mph - -  
8:00 PM 48.2 °F - 37.4 °F 66% 29.96 インチ 9.0 マイル 西 16.1 Mph 23.0 Mph N/A  
9:00 PM 46.4 °F 40.4 °F 37.4 °F 71% 29.99 インチ 9.0 マイル 北西 13.8 Mph 20.7 Mph N/A  
10:00 PM 44.6 °F 37.4 °F 35.6 °F 71% 30.01 インチ 9.0 マイル 西 16.1 Mph - N/A   だいたい曇
11:00 PM 45 °F - 35 °F 59% 30.01 インチ 10 マイル 西 12.7 Mph - -  
11:00 PM 44.6 °F 38.1 °F 35.6 °F 71% 30.01 インチ 9.0 マイル 西 13.8 Mph - N/A